Location: Augirein
(42.9320°N, 0.9181°E)
Time: 20:01:47
(UTC+00:00)

ASTEX 1 - Pass Details

Date: 20 June 2021
Orbit: 720 x 743 km, 92.7° (Epoch: 02 August)

Event Time Altitude Azimuth Distance (km) Brightness Sun altitude
Exits shadow 03:17:53 - 193° (SSW) 2,507 5.7 -9.3°
Reaches altitude 10° 03:18:35 10° 195° (SSW) 2,235 5.4 -9.2°
Maximum altitude 03:23:20 46° 268° (W) 983 3.8 -8.5°
Drops below altitude 10° 03:28:06 10° 342° (NNW) 2,237 6.3 -7.9°
Sets 03:30:29 0° 349° (NNW) 3,160 7.1 -7.6°
